Regional Weather Roundup
Issued by NWS

Home | Current Version | Previous Version | Graphics & Text | Print | Product List | Glossary On
Versions: 1 2 3 4 5 6 7 8 9 10 11 12 13 14 15 16 17 18 19 20 21 22 23 24 25 26 27 28 29 30 31 32 33 34 35 36 37 38 39 40 41 42 43 44 45 46 47 48 49 50
000
ASUS43 KFSD 201802
RWRSD

WEATHER ROUNDUP FOR SOUTH DAKOTA
NATIONAL WEATHER SERVICE SIOUX FALLS SD
100 PM CDT SUN AUG 20 2017

NOTE: "FAIR" INDICATES FEW OR NO CLOUDS BELOW 12,000 FEET WITH NO
SIGNIFICANT WEATHER AND/OR OBSTRUCTIONS TO VISIBILITY.


SDZ001>005-009-010-012>017-201900-
NORTHWEST AND NORTH CENTRAL SOUTH DAKOTA

CITY           SKY/WX    TMP DP  RH WIND       PRES   REMARKS
BUFFALO          N/A     76  40  27 SE13G18   30.02F
FAITH            N/A     75  42  30 NE13      30.07F
MOBRIDGE       CLOUDY    73  51  46 NE8       30.04R
$$

SDZ012>016-024>037-041>051-057-063-072>074-201900-
SOUTHWEST AND SOUTH CENTRAL SOUTH DAKOTA

CITY           SKY/WX    TMP DP  RH WIND       PRES   REMARKS
RAPID CTY ARPT SUNNY     73  47  39 W3        30.10F
PIERRE         SUNNY     74  54  49 N18       30.03R
CUSTER         SUNNY     68  46  45 E16G22    30.19F
ELLSWORTH AFB  SUNNY     73  48  41 NE5       30.09F
PHILIP         SUNNY     80  53  39 NE14      30.05S
PINE RIDGE     MOSUNNY   81  53  37 E10G20    30.08F
SPEARFISH      FAIR      73  45  35 E17G24    30.10F
WINNER         FAIR      81  60  48 E13       30.00F
$$

SDZ004>011-016>023-039-040-201900-
NORTHEAST SOUTH DAKOTA

CITY           SKY/WX    TMP DP  RH WIND       PRES   REMARKS
ABERDEEN       CLOUDY    71  51  49 N12       30.03R
WATERTOWN      MOSUNNY   66  55  67 VRB7      30.01S
BROOKINGS      SUNNY     72  61  68 N10       30.02R
SISSETON         N/A     68  57  68 N10       29.98F
$$

SDZ017-020-022-023-036>040-048>070-201900-
SOUTHEAST SOUTH DAKOTA

CITY           SKY/WX    TMP DP  RH WIND       PRES   REMARKS
SIOUX FALLS    PTSUNNY   82  70  66 E8        29.96F
HURON          SUNNY     77  59  53 E13       29.96F
CHAMBERLAIN    SUNNY     81  56  42 E13       29.98F
MITCHELL       SUNNY     79  64  60 NE13      29.98F
YANKTON        SUNNY     81  67  62 VRB3      29.96F
$$

ABBREVIATIONS USED IN REMARKS
   TC - TEMPERATURE IN CELSIUS
  WCI - WIND CHILL INDEX
   HX - HEAT INDEX
  VSB - VISIBILITY





USA.gov is the U.S. government's official web portal to all federal, state and local government web resources and services.